NWS Home NWS Lubbock West Texas Mesonet North Sector Latest Conditions as of 1130 AM, Sun Nov 18, 2018

Latest   N   C   S   Daily Sum   3hrΔ   24hrΔ   Soil Data 
Site Map   24hr Precip   72hr Precip   Google Plot


Station Time of Last Temp Dew Pt. RH Wind Direction Wind Speed Wind Gust Max Wind Max Temp Min Temp Max RH Min RH Altimeter 1HR Rain Today's Rain Solar Rad Wind Chill
Adrian 6WSW  11:25 AM 27 26 96% SE11 18 mph 7° @ 1252 AM 27 23 98 95 30.29" 0 0.00 174  
Aiken 3WSW  11:25 AM 31 26 79% NW1113 23 mph 345° @ 0204 AM 32 27 95 79 30.31" 0 0.00 198 22
Amarillo 15NNW   11:25 AM 31 25 81% NW67 20 mph 13° @ 1247 AM 31 26 100 81 30.32" 0 0.00 172 25
Amarillo 7SSE  11:25 AM 29 27 91% NW67 21 mph 355° @ 0247 AM 29 25 100 90 30.31" 0 0.00 133 22
Amarillo 9NNE  11:25 AM 30 25 82% NW45 20 mph 4° @ 0101 AM 30 25 97 82 30.31" 0 0.00 157  
Amherst 1NE  11:25 AM 31 27 83% NW69 21 mph 11° @ 1225 AM 32 28 89 82 30.30" 0 0.00 140 25
Bootleg 11WNW  11:25 AM 26 25 96% N22 16 mph 6° @ 0240 AM 26 22 99 94 30.30" 0 0.00 146  
Boys Ranch 1WSW  11:25 AM 31 25 78% NW24 17 mph 17° @ 0115 AM 31 28 90 78 30.33" 0 0.00 156  
Canadian 6E  11:25 AM 30 25 82% NW913 26 mph 351° @ 0420 AM 30 24 95 82 30.30" 0 0.00 144 22
Caprock Canyons State Park  11:25 AM 33 26 74% N69 24 mph 356° @ 0139 AM 33 28 90 74 30.33" 0 0.00 175 27
Childress 2NNE  11:25 AM 34 25 69% NW1214 25 mph 345° @ 0210 AM 34 29 86 69 30.34" 0 0.00 322 25
Clarendon 2WSW  11:25 AM 32 25 75% N1115 23 mph 350° @ 0105 AM 32 27 88 75 30.31" 0 0.00 293 23
Claude 12SW  11:25 AM 30 26 84% NW911 24 mph 355° @ 0120 AM 30 25 96 83 30.30" 0 0.00 232 22
Dimmitt 2NE  11:25 AM 29 27 96% NW810 20 mph 1° @ 0100 AM 29 25 99 94 30.29" 0 0.00 131 21
Dozier 3W  11:25 AM 33 25 73% N1113 23 mph 349° @ 0147 AM 33 27 94 73 30.35" 0 0.00 262 24
Earth 9WSW  11:25 AM 32 27 81% N57 19 mph 20° @ 0509 AM 32 27 92 81 30.31" 0 0.00 211 27
Endee NM 2SW  11:25 AM 28 24 83% N33 16 mph 22° @ 0155 AM 29 25 97 83 30.31" 0 0.00 162  
Estelline 3SSE  11:25 AM 36 25 66% NW78 22 mph 349° @ 0128 AM 36 30 84 65 30.35" 0 0.00 324  
Floydada 2NNE  11:25 AM 34 25 72% NW68 22 mph 356° @ 1235 AM 34 28 90 72 30.30" 0 0.00 224 29
Friona 2NE  11:25 AM 29 28 96% NE35 20 mph 2° @ 0320 AM 29 24 99 96 30.30" 0 0.00 147  
Fritch 1WNW  11:25 AM 30 24 78% N46 24 mph 1° @ 1221 AM 31 26 93 77 30.33" 0 0.00 173  
Goodlett 3W  11:25 AM 34 24 67% NW1013 24 mph 331° @ 0240 AM 34 30 83 67 30.36" 0 0.00 273 26
Goodnight  11:25 AM 31 26 81% N910 25 mph 347° @ 0119 AM 31 25 98 80 30.32" 0 0.00 183 23
Happy 1E  11:25 AM 30 27 87% N1013 23 mph 5° @ 1206 AM 30 26 96 85 30.30" 0 0.00 267 21
Hart 3N  11:25 AM 30 28 93% NW68 21 mph 349° @ 0135 AM 30 26 99 92 30.30" 0 0.00 137 24
Hereford 2NW  11:25 AM 29 28 96% NW710 19 mph 3° @ 1240 AM 29 26 97 89 30.29" 0 0.00 157 22
Lesley 2S  11:25 AM 37 26 63% N911 23 mph 342° @ 0110 AM 37 30 89 63 30.34" 0 0.00 290  
McLean 1E  11:25 AM 30 24 81% N1015 28 mph 353° @ 0300 AM 30 24 95 80 30.30" 0 0.00 165 21
Memphis 1NE  11:25 AM 34 27 74% N813 21 mph 345° @ 0215 AM 34 29 91 74 30.34" 0 0.00 263 27
Muleshoe 2SSW  11:25 AM 32 27 83% NW47 18 mph 8° @ 0155 AM 32 26 96 83 30.30" 0 0.00 154  
Northfield 1S  11:25 AM 36 24 63% NW811 24 mph 357° @ 1210 AM 36 30 84 63 30.34" 0 0.00 286  
Odell 4ENE  11:25 AM 34 25 68% NW1112 26 mph 342° @ 1259 AM 35 31 84 67 30.37" 0 0.00 201 26
Olton 6S  11:25 AM 31 27 86% NW79 21 mph 4° @ 0155 AM 31 28 94 85 30.30" 0 0.00 140 25
Palo Duro 4E (JA Ranch)  11:25 AM 34 25 70% N1315 23 mph 345° @ 0120 AM 34 28 87 70 30.33" 0 0.00 248 25
Palo Duro Canyon SP Floor  11:25 AM 34 26 73% NW810 20 mph 332° @ 0312 AM 34 29 86 72 30.33" 0 0.00 208 27
Palo Duro Canyon State Park Rim  11:25 AM 31 25 79% NW1012 22 mph 349° @ 0135 AM 31 26 92 79 30.31" 0 0.00 241 23
Pampa 2E  11:25 AM 27 26 98% N1113 23 mph 346° @ 0245 AM 27 23 100 98 30.30" 0 0.00 139 17
Panhandle 1SSW  11:25 AM 28 26 94% NW79 24 mph 351° @ 1205 AM 28 24 98 92 30.31" 0 0.00 154 21
Plainview 1S  11:25 AM 32 27 83% NW811 22 mph 355° @ 0155 AM 32 28 97 83 30.30" 0 0.00 179 25
Romero 11 SSW  11:25 AM 31 24 76% SE34 17 mph 39° @ 0110 AM 31 26 93 76 30.29" 0 0.00 200  
Silverton 7ESE  11:25 AM 32 25 74% NW1114 25 mph 1° @ 0135 AM 32 27 92 74 30.31" 0 0.00 235 23
Stinnett 1NNW  11:25 AM 28 25 89% N67 21 mph 12° @ 1215 AM 28 24 97 88 30.32" 0 0.00 148 22
Tulia 2ENE  11:25 AM 30 25 80% NW810 23 mph 350° @ 0155 AM 30 26 93 80 30.30" 0 0.00 168 23
Turkey 2WSW  11:25 AM 34 24 70% NW914 23 mph 323° @ 0220 AM 34 29 82 70 30.33" 0 0.00 241 27
Umbarger 3NNE  11:25 AM 29 27 92% NW910 19 mph 3° @ 1246 AM 29 25 97 91 30.30" 0 0.00 199 20
Vigo Park  11:25 AM 31 25 79% N911 20 mph 357° @ 1241 AM 31 26 95 78 30.31" 0 0.00 218 23

West Texas Mesonet Home   Site Map/Menu  NWS Lubbock Soil Data  Daily Summary Page  24hr Precip  72hr Precip  Google Plot